Location: Homer
(59.6430°N, 151.5480°W)
Time: 12:49:32
(UTC-08:00)

Daily predictions for brighter satellites

Satellite Brightness Start Highest point End
(mag) Time Altitude Azimuth Time Altitude Azimuth Time Altitude Azimuth
Cosmos 304 Rocket 4.0 20:30:10 10° SW 20:34:58 78° NW 20:39:48 10° NNE
Cosmos 2058 Rocket 4.4 20:31:50 10° SW 20:36:05 45° WNW 20:40:20 10° N
Cosmos 1076 Rocket 3.5 20:32:55 10° NNW 20:37:15 75° ENE 20:41:35 10° SSE
Cosmos 1464 Rocket 4.3 20:34:47 10° SSE 20:40:41 46° E 20:46:32 10° NNE
Cosmos 2278 Rocket 4.4 20:36:25 10° NW 20:41:15 29° WSW 20:46:02 10° SSW
SKYMED 2 3.6 20:38:57 10° NNE 20:43:20 85° ESE 20:47:41 10° SSW
SJ-6B 3.7 20:39:32 10° S 20:43:30 55° WSW 20:47:34 10° NNW
COSMOS 2455 2.9 20:37:53 10° SW 20:43:54 73° SE 20:49:57 10° NE
Helios 1B rocket 3.1 20:40:50 10° NNE 20:44:34 32° E 20:48:18 10° SSE
Cosmos 2360 Rocket 3.0 20:40:56 10° WSW 20:46:31 54° NW 20:52:07 10° NE
Meteor 1-22 Rocket 4.2 20:41:32 10° S 20:46:41 53° E 20:51:50 10° NNE
Cosmos 2219 Rocket 2.2 20:41:21 10° SSW 20:46:58 73° SE 20:52:39 10° NE
Cosmos 1980 Rocket 3.8 20:42:34 10° WNW 20:47:31 29° NNW 20:52:28 10° NE
Meteor 1-24 Rocket 4.3 20:41:57 10° NNW 20:47:41 64° W 20:53:11 10° S
SPOT 5 4.2 20:45:25 10° E 20:48:30 19° NE 20:51:37 10° N
Cosmos 1500 Rocket 4.1 20:46:09 10° N 20:50:21 41° ENE 20:54:33 10° SE
Cosmos-2242 3.9 20:47:25 10° SSE 20:51:10 28° E 20:54:56 10° NNE
Cosmos 1408 Rocket 3.6 20:46:57 10° NNW 20:51:24 87° ENE 20:55:45 10° SSE
Cosmos 1758 4.2 20:48:05 10° SSE 20:51:37 29° E 20:55:12 10° NNE
Cosmos 1452 Rocket 3.9 20:47:53 10° NW 20:53:10 71° WSW 20:58:24 10° SSE
METEOR-M 4.5 20:47:49 10° S 20:53:10 72° WSW 20:58:34 10° NNW
DMSP B5D1-3 4.5 20:50:20 10° NNE 20:55:28 83° ESE 21:00:36 10° SSW
Cosmos 2333 4.4 20:49:57 10° SW 20:55:46 81° NW 21:01:37 10° NE
USA 215 4.2 20:50:41 10° E 20:55:59 26° SE 21:01:16 10° S
Cosmos 2233 Rocket 4.2 20:51:13 10° SSW 20:57:33 85° WNW 21:03:56 10° NNE
SeaSat 1 3.9 20:54:49 10° ENE 20:57:40 15° ESE 21:00:30 10° SE
Cosmos 2112 Rocket 4.1 20:53:40 10° SSW 20:59:02 85° ESE 21:04:27 10° NNE
FENGYUN 3A 3.7 20:54:29 10° SSE 20:59:53 81° ENE 21:05:20 10° NNW
ERS-1 Rocket 3.5 20:55:17 10° SE 20:59:58 40° ENE 21:04:39 10° N
Cosmos 2151 3.8 20:57:16 10° N 21:01:04 31° ENE 21:04:38 11° SE
CZ-4B DEB 2.7 20:58:00 10° SSE 21:01:16 81° ENE 21:04:34 10° NNW
Cosmos 2369 Rocket 2.3 20:55:45 10° NW 21:01:24 70° NE 21:07:04 10° SE
Cosmos 2263 4.4 20:55:55 10° NW 21:01:42 60° NE 21:07:11 11° ESE
Lacrosse 4 Rocket 3.1 20:59:27 10° W 21:03:36 34° NNW 21:07:45 10° NE
Cosmos 1680 Rocket 3.7 20:58:47 10° SW 21:04:09 83° WNW 21:09:31 10° NNE
Cosmos 1607 4.0 21:00:06 10° SSW 21:06:05 55° SE 21:12:05 10° ENE
Resurs 01 Rocket 2.3 21:02:05 10° S 21:06:30 59° WSW 21:10:55 10° NNW
ATLAS CENTAUR R/B 4.3 21:06:23 10° W 21:08:23 13° WSW 21:10:19 10° SW
Resurs 1-3 4.1 21:05:38 10° S 21:10:01 66° WSW 21:14:26 10° NNW
Cosmos 1943 Rocket 2.6 21:06:46 10° NW 21:12:20 51° NE 21:16:56 15° ESE
Cosmos 292 Rocket 3.7 21:07:40 10° SSW 21:12:29 75° ESE 21:17:21 10° NE
Cosmos 1674 2.8 21:08:55 10° N 21:12:47 58° ENE 21:16:37 10° SSE
SL-16 R/B 3.8 21:08:55 10° W 21:14:00 32° NNW 21:19:06 10° NE
Cosmos 1939 Rocket 3.5 21:12:28 13° SE 21:15:39 37° ENE 21:19:21 10° N
Cosmos 1420 Rocket 4.2 21:11:46 10° NW 21:17:04 76° WSW 21:22:22 10° SSE
Cosmos 1328 4.3 21:14:01 10° N 21:17:47 39° ENE 21:20:45 15° SE
Cosmos 1743 Rocket 3.5 21:13:47 10° NNW 21:18:18 83° ENE 21:22:45 10° SSE
Cosmos 2058 3.8 21:15:13 10° N 21:18:57 31° ENE 21:21:25 17° ESE
CZ-4 DEB 3.4 21:19:18 19° ESE 21:21:06 35° ENE 21:24:00 10° N
Cosmos 1331 Rocket 4.3 21:17:19 10° NNW 21:22:34 54° NE 21:26:41 16° ESE
Cosmos 2333 Rocket 2.3 21:17:10 10° SW 21:22:59 90° WNW 21:28:48 10° NE
ATLAS 3B R/B 2.9 21:15:27 10° SW 21:23:00 83° SSE 21:30:14 10° ENE
GP-B 3.5 21:23:04 10° N 21:27:20 42° E 21:31:35 10° SSE
Cosmos 1766 3.4 21:25:34 10° SSW 21:29:33 81° WNW 21:33:36 10° NNE
ERBS 2.8 21:26:20 10° W 21:29:44 50° SSW 21:31:42 22° SE
ALOS 2.8 21:26:33 10° S 21:31:11 62° WSW 21:35:52 10° NNW
COSMO-SKYMED 1 3.9 21:27:11 10° N 21:31:20 43° WNW 21:35:27 10° SW
SL-14 R/B 4.0 21:28:15 10° N 21:32:01 36° ENE 21:34:08 21° ESE
Cosmos 1867 3.6 21:26:46 10° SW 21:32:15 83° SE 21:37:48 10° ENE
Cosmos 1655 Rocket 4.2 21:31:11 10° N 21:37:20 55° ENE 21:42:33 14° SE
NOSS 3-2 (A) 3.9 21:32:55 10° SSW 21:38:46 42° SE 21:45:13 10° ENE
Cosmos 2322 Rocket 3.9 21:35:12 10° WNW 21:40:06 29° NNW 21:45:02 10° NE
Nadezhda 4 Rocket 4.2 21:35:08 10° NNW 21:41:28 76° W 21:47:42 10° S
COSMOS 2428 3.7 21:37:44 10° WSW 21:43:16 48° NW 21:48:51 10° NE
USA 186 2.0 21:41:31 13° S 21:43:22 45° W 21:45:42 10° NNW
USA 238 DEB 3.7 21:36:48 10° SW 21:43:48 70° SE 21:50:50 10° ENE
USA 238 3.7 21:36:55 10° SW 21:43:55 70° SE 21:50:56 10° ENE
CZ-2D R/B 4.1 21:40:49 10° S 21:44:38 51° W 21:48:28 10° NNW
Sich 1 3.9 21:41:02 10° N 21:45:04 32° ENE 21:46:44 25° ESE
ASTEX 1 3.3 21:40:35 10° N 21:45:34 75° E 21:50:29 10° S
Cosmos 1092 Rocket 4.0 21:40:23 10° NNW 21:46:41 87° W 21:52:54 10° S
Cosmos 1953 2.2 21:42:52 10° S 21:46:53 81° E 21:50:53 10° NNE
Aureole 2 Rocket 2.8 21:42:58 10° SSW 21:47:20 77° ESE 21:51:32 10° NE
H-2A R/B 3.3 21:45:42 18° E 21:47:55 25° NE 21:52:02 10° N
Cosmos 2237 Rocket 2.4 21:45:10 10° SW 21:50:52 75° NW 21:56:35 10° NE
Meteor 1-29 3.2 21:50:01 10° NNE 21:53:34 74° WNW 21:57:05 10° SSW
YAOGAN 6 3.3 21:52:55 30° E 21:53:55 37° ENE 21:57:19 10° N
Envisat 2.9 21:50:41 16° SSE 21:54:47 77° ENE 21:59:54 10° NNW
Cosmos 1697 Rocket 4.2 21:51:18 10° NW 21:56:04 27° N 22:00:38 11° ENE
Exosat Rocket 4.2 21:52:12 10° NW 21:57:56 81° WSW 22:04:35 15° SSE
Cosmos 1805 Rocket 3.7 21:57:06 10° N 22:01:32 56° ENE 22:03:34 30° SE
ATLAS 5 CENTAUR R/B 2.5 21:57:07 10° S 22:01:36 34° SE 22:05:06 17° ENE
Cosmos 1805 3.4 21:58:46 10° SSW 22:02:42 76° WNW 22:06:42 10° NNE
Terra 3.2 22:01:20 20° ENE 22:02:49 24° NE 22:06:35 10° N
Cosmos 1626 3.3 21:59:34 10° N 22:02:51 27° ENE 22:03:09 26° ENE
USA 245 4.0 22:02:15 31° E 22:02:57 34° ENE 22:06:04 10° N
Cosmos 2026 Rocket 3.9 21:57:09 10° NNW 22:03:17 79° ENE 22:08:22 15° SSE
H-2A R/B 4.3 22:00:30 10° SSW 22:04:08 36° W 22:07:45 10° NNW
Cosmos 1980 4.2 21:58:44 10° SW 22:04:22 63° NW 22:10:02 10° NE
YAOGAN 11 4.1 22:02:10 17° SSE 22:05:28 78° WSW 22:09:48 10° NNW
H-2A R/B 2.2 22:06:05 30° SE 22:08:09 64° ENE 22:12:38 10° NNW
SL-16 R/B 2.1 22:03:50 10° SW 22:09:33 85° SE 22:15:18 10° NE
CZ-4C R/B 2.3 22:03:57 10° SW 22:09:42 83° SSE 22:16:21 10° ENE
SPOT 1/Viking Rocket 3.9 22:08:13 30° ESE 22:10:26 48° ENE 22:15:23 10° NNW
NOSS 0 Rocket 4.4 22:05:03 10° WSW 22:11:12 64° NW 22:17:26 10° NE
Cosmos 1634 Rocket 4.0 22:05:15 10° S 22:11:21 60° E 22:17:27 10° NNE
Cosmos 1544 3.2 22:12:00 10° SSW 22:15:45 76° WNW 22:19:32 10° NNE
NOSS 3-2 (C) 3.7 22:09:40 10° SSW 22:15:46 52° SE 22:22:31 10° ENE
Cosmos 1633 Rocket 3.3 22:12:38 10° N 22:16:56 50° ENE 22:18:04 40° ESE
CENTAUR R/B 4.1 22:21:54 19° E 22:21:54 19° E 22:24:25 10° ENE
CZ-4 SHROUD 4.2 22:19:59 32° NE 22:19:59 32° NE 22:22:16 10° N
Helios 1B rocket 3.6 22:16:07 10° N 22:20:03 45° WNW 22:23:59 10° SW
Cosmos 1703 3.4 22:16:20 10° N 22:20:12 52° ENE 22:20:47 47° ESE
Cosmos 2034 Rocket 4.5 22:16:41 10° SSW 22:22:56 64° WNW 22:29:18 10° N
Cosmos 1470 2.6 22:20:30 18° S 22:23:20 82° ESE 22:27:15 10° NNE
MetOp-A 4.1 22:21:21 29° SSE 22:24:12 79° ENE 22:29:36 10° NNW
Cosmos 1656 Rocket 3.6 22:19:24 10° NW 22:24:50 68° NE 22:27:01 37° ESE
SPOT 5 2.5 22:24:26 38° SSE 22:26:03 81° ENE 22:30:26 10° NNW
ARGOS 3.3 22:24:48 35° SE 22:27:01 60° ENE 22:32:23 10° NNW
Cosmos 1758 4.4 22:24:01 10° SW 22:28:00 47° WNW 22:32:01 10° N
Cosmos-2242 3.8 22:24:14 10° SSW 22:28:32 54° WNW 22:32:53 10° N
Cosmos 1110 Rocket 4.4 22:23:32 10° NW 22:28:46 63° WSW 22:31:47 25° S
COSMOS 2455 3.6 22:24:16 10° W 22:30:11 53° NNW 22:36:08 10° NE
Cosmos 2219 Rocket 3.4 22:26:00 10° WSW 22:31:22 42° NNW 22:36:46 10° NE
Cosmos 2360 Rocket 4.0 22:26:46 10° WNW 22:31:42 29° NNW 22:36:37 10° NE
CZ-4C R/B 4.5 22:32:50 26° NE 22:32:50 26° NE 22:35:32 10° N
Cosmos 1980 Rocket 3.8 22:28:16 10° NW 22:33:10 28° NNE 22:37:05 14° ENE
PSLV R/B 3.8 22:34:02 46° NNE 22:34:02 46° NNE 22:36:27 10° N
Cosmos 2221 2.7 22:33:44 48° E 22:33:47 48° E 22:37:58 10° NNE
Cosmos 1842 Rocket 3.6 22:31:21 10° SSW 22:35:41 79° WNW 22:40:06 10° NNE
SeaSat 1 2.4 22:31:15 10° NE 22:36:10 59° ESE 22:41:03 10° SSW
Cosmos 2151 3.9 22:34:30 10° NNW 22:38:34 47° W 22:41:14 20° SSW
ERS-1 Rocket 3.7 22:34:43 15° S 22:38:42 50° W 22:43:38 10° NNW
NOAA 11 4.1 22:37:20 39° SE 22:39:24 73° ENE 22:44:50 10° NNW
Cosmos 1666 Rocket 3.5 22:35:33 10° NNW 22:40:00 86° E 22:41:11 49° SSE
USA 215 3.4 22:36:30 26° E 22:40:05 52° SSE 22:46:27 10° SW
Cosmos 1733 3.2 22:39:21 30° SSW 22:41:12 81° WNW 22:45:06 10° NNE
SL-08 RB Rocket 3.8 22:40:54 51° ESE 22:41:40 59° ENE 22:46:06 10° NNW
Lacrosse 4 Rocket 3.2 22:39:24 10° NW 22:43:24 29° N 22:45:51 18° NE
deb Chang Zheng 4 4.3 22:39:48 10° NNE 22:43:04 36° ENE 22:43:04 36° ENE
Cosmos 2369 Rocket 3.4 22:40:04 10° NW 22:45:11 36° WSW 22:49:01 16° S
Cosmos 1939 Rocket 4.1 22:48:25 21° SSW 22:50:38 38° W 22:54:24 10° NNW
Cosmos 1933 Rocket 3.7 22:48:49 10° N 22:53:15 56° ENE 22:53:26 55° E
Cosmos 1607 4.2 22:47:10 10° WSW 22:53:19 69° NNW 22:59:31 10° ENE
Cosmos 1943 3.3 22:54:32 47° ESE 22:54:32 47° ESE 22:59:48 10° NE
Meteor 2-20 Rocket 4.4 22:48:22 10° NNW 22:54:36 89° W 22:57:20 36° S
Meteor 2-1 Rocket 4.3 22:52:39 39° SSE 22:54:44 63° E 23:00:35 10° NNE
Cosmos 2058 3.8 22:52:07 10° NNW 22:56:04 44° W 22:57:41 29° SSW
Cosmos 1943 Rocket 2.6 22:50:43 10° NW 22:56:14 54° WSW 22:58:27 34° S
Cosmos 1437 Rocket 3.3 22:57:18 48° NE 22:57:18 48° NE 23:00:20 10° NNE
Cosmos 1603 3.6 22:50:52 10° SSW 22:56:38 82° SE 23:02:27 10° NE
Nimbus 7 Rocket 4.5 22:50:47 10° NNE 22:56:47 57° ESE 22:58:32 42° SSE
SL-16 R/B 3.9 22:54:55 10° NW 22:59:43 27° N 23:04:14 11° ENE
Cosmos 1340 Rocket 3.5 22:56:34 10° N 22:59:48 41° NE 22:59:48 41° NE
Cosmos 1470 Rocket 3.5 22:57:26 10° N 23:01:46 67° ENE 23:01:46 67° ENE
CARTOSAT-1 3.9 23:05:51 51° ENE 23:05:51 51° ENE 23:09:56 10° N
ERBS 4.4 23:03:12 10° W 23:05:06 21° WSW 23:05:06 21° WSW
Cosmos 2333 Rocket 3.7 23:02:33 10° W 23:07:55 38° NNW 23:13:17 10° NE
Cosmos 2180 Rocket 4.3 23:08:51 40° S 23:11:14 76° E 23:17:24 10° NNE
Cosmos 405 4.5 23:14:40 31° NNE 23:14:40 31° NNE 23:16:41 10° NNE
Cosmos 2285 Rocket 4.1 23:07:07 10° NNW 23:13:32 66° NE 23:15:09 49° ESE
ATLAS 3B R/B 3.1 23:06:46 10° W 23:14:12 65° N 23:20:08 15° ENE
Cosmos 1867 4.3 23:10:52 10° W 23:16:15 53° NNW 23:20:26 17° ENE
Cosmos 1356 Rocket 4.3 23:14:23 10° N 23:17:29 39° NNE 23:17:29 39° NNE
Cosmos 2278 3.9 23:14:40 10° NW 23:20:22 60° NE 23:21:28 51° E
Cosmos 1269 Rocket 4.2 23:16:23 10° SW 23:21:40 70° NW 23:26:59 10° NNE
Sich 1 3.8 23:18:42 10° NNW 23:22:58 48° W 23:23:44 43° SW
Cosmos 2228 Rocket 4.0 23:25:35 39° NE 23:25:35 39° NE 23:28:34 10° NNE
Landsat 7 3.7 23:24:53 82° SSE 23:25:06 89° SW 23:29:56 10° NNW
Meteor 1-16 Rocket 4.2 23:22:29 29° SSW 23:25:14 72° WNW 23:30:37 10° NNE
Cosmos 2322 Rocket 3.8 23:20:55 10° NW 23:25:49 28° NNE 23:29:17 16° ENE
H-2A R/B 1.8 23:26:21 75° SSE 23:26:48 88° ENE 23:31:59 10° NNW
YAOGAN 6 4.0 23:27:24 33° W 23:27:33 33° W 23:30:55 10° NNW
USA 81 3.9 23:27:20 73° SE 23:27:39 76° E 23:32:58 10° N
Cosmos 1048 Rocket 4.2 23:22:36 10° SW 23:27:53 71° NW 23:33:07 10° NNE
NOSS 3-2 (A) 3.6 23:22:46 10° WSW 23:29:15 86° NNW 23:36:30 10° ENE
Cosmos 1992 Rocket 3.8 23:26:09 10° NNW 23:31:26 88° WSW 23:31:48 78° SSE
CZ-4B R/B 4.1 23:28:41 10° NNE 23:32:23 41° ENE 23:32:23 41° ENE
USA 238 DEB 4.0 23:27:56 10° W 23:34:59 70° NNW 23:41:55 11° ENE
USA 238 4.0 23:28:01 10° W 23:35:05 70° NNW 23:42:03 10° ENE
Cosmos 2237 Rocket 3.8 23:30:39 10° W 23:35:48 33° NNW 23:40:55 10° NE
Cosmos 2279 Rocket 4.1 23:33:51 26° SSW 23:37:28 71° WNW 23:43:42 10° NNE
Cosmos 1626 3.3 23:34:49 10° NNW 23:37:51 42° WNW 23:37:51 42° WNW
USA 245 4.5 23:39:34 37° W 23:39:34 37° W 23:42:34 10° NNW
Terra 1.7 23:40:14 84° NNW 23:40:14 84° NNW 23:44:53 10° NNW
Cosmos 1697 Rocket 3.3 23:35:55 10° NW 23:41:21 46° NE 23:42:21 42° ENE
H-2A R/B 3.9 23:43:13 23° WSW 23:44:33 26° W 23:48:22 10° NW
Cosmos 2266 Rocket 4.3 23:39:04 10° NNW 23:45:22 62° W 23:47:20 43° SSW
ATLAS 5 CENTAUR R/B 1.9 23:40:45 10° WSW 23:45:52 89° NNW 23:46:44 64° ENE
Cosmos 2369 3.7 23:40:26 10° NW 23:46:13 73° NE 23:46:42 69° E
In-Cosmos 22 Rocket 4.1 23:44:11 10° NNW 23:49:43 70° ENE 23:49:48 70° ENE
SPOT 1/Viking Rocket 4.4 23:48:52 37° SW 23:49:58 42° W 23:54:53 10° NNW
SL-08 R/B 4.4 23:46:40 10° N 23:52:50 67° ENE 23:53:17 64° E
IGS 5A 4.2 23:54:18 53° NNW 23:54:18 53° NNW 23:57:34 10° NNW
SL-16 R/B 3.6 23:48:57 10° W 23:54:16 38° NNW 23:59:37 10° NE
